EDW25H LEZL-LSZH

Flight info

Callsign EDW25H
Flight time 2h 1m
Altitude 36000
Route HIJ DCT PARKA DCT TLD DCT SIE DCT BASIM DCT GASMO DCT VABAR DCT LPA DCT GOSVI DCT TOPTU DCT TOU DCT GAI DCT MEN DCT NINUN DCT LATAM DCT ETREK DCT LTP/N0434F340 DCT SOPLO DCT OMASI DCT KINNI DCT LAMUR DCT GUDAX Z57 DOPIL
Aircraft A21N/M-SDE2E3FGHIRWXY/LB1

Departure

Time 2026-05-04 14:12
Airport Seville Airport (LEZL)

Arrival

Time 2026-05-04 16:14
Airport Zürich Airport (LSZH)
Time Latitude Longitude Altitude Speed Heading
2026-05-04 13:49 37.42299 -5.89838 100 ft 0 kts 315°
2026-05-04 14:02 37.42297 -5.89836 99 ft 1 kts 315°
2026-05-04 14:02 37.42279 -5.89812 100 ft 4 kts 310°
2026-05-04 14:03 37.42267 -5.89789 99 ft 1 kts 296°
2026-05-04 14:03 37.42257 -5.89774 101 ft 1 kts 15°
2026-05-04 14:03 37.42238 -5.89791 99 ft 4 kts 44°
2026-05-04 14:03 37.42226 -5.89805 99 ft 1 kts 44°
2026-05-04 14:06 37.42227 -5.89804 100 ft 1 kts 44°
2026-05-04 14:06 37.42242 -5.89786 99 ft 5 kts 44°
2026-05-04 14:07 37.42263 -5.89735 99 ft 9 kts 90°
2026-05-04 14:07 37.42220 -5.89661 99 ft 13 kts 135°
2026-05-04 14:07 37.42151 -5.89576 101 ft 15 kts 135°
2026-05-04 14:07 37.42070 -5.89472 103 ft 18 kts 133°
2026-05-04 14:08 37.41983 -5.89349 103 ft 20 kts 108°
2026-05-04 14:08 37.41983 -5.89168 106 ft 22 kts 90°
2026-05-04 14:08 37.41983 -5.88969 107 ft 24 kts 90°
2026-05-04 14:08 37.41984 -5.88755 108 ft 25 kts 90°
2026-05-04 14:09 37.41986 -5.88311 111 ft 23 kts 90°
2026-05-04 14:09 37.41986 -5.88107 112 ft 21 kts 90°
2026-05-04 14:10 37.41988 -5.87769 114 ft 21 kts 89°
2026-05-04 14:10 37.41988 -5.87581 115 ft 23 kts 93°
2026-05-04 14:10 37.41926 -5.87434 119 ft 13 kts 160°
2026-05-04 14:10 37.41870 -5.87428 121 ft 9 kts 191°
2026-05-04 14:11 37.41805 -5.87469 122 ft 12 kts 230°
2026-05-04 14:11 37.41799 -5.87558 121 ft 12 kts 269°
2026-05-04 14:11 37.41799 -5.87988 115 ft 90 kts 269°
2026-05-04 14:12 37.41794 -5.89073 107 ft 154 kts 270°
2026-05-04 14:12 37.41809 -5.90495 645 ft 160 kts 272°
2026-05-04 14:12 37.42097 -5.93270 2023 ft 166 kts 308°
2026-05-04 14:13 37.43054 -5.94184 2653 ft 181 kts 323°
2026-05-04 14:13 37.44013 -5.95222 3304 ft 191 kts 315°
2026-05-04 14:13 37.45043 -5.96436 3885 ft 212 kts 316°
2026-05-04 14:13 37.46192 -5.97755 4344 ft 240 kts 319°
2026-05-04 14:14 37.47686 -5.98854 4876 ft 254 kts 334°
2026-05-04 14:14 37.51264 -5.98874 6595 ft 273 kts 18°
2026-05-04 14:14 37.53027 -5.97910 7504 ft 278 kts 22°
2026-05-04 14:15 37.56625 -5.95834 9177 ft 290 kts 21°
2026-05-04 14:15 37.60421 -5.93704 10506 ft 313 kts 20°
2026-05-04 14:16 37.64651 -5.91366 11162 ft 354 kts 21°
2026-05-04 14:16 37.66947 -5.90090 11762 ft 364 kts 21°
2026-05-04 14:17 37.71643 -5.87486 13365 ft 372 kts 20°
2026-05-04 14:17 37.74026 -5.86165 14129 ft 377 kts 20°
2026-05-04 14:17 37.78893 -5.83465 15516 ft 386 kts 19°
2026-05-04 14:18 37.81369 -5.82090 16211 ft 391 kts 19°
2026-05-04 14:18 37.86379 -5.79305 17579 ft 400 kts 19°
2026-05-04 14:19 37.91536 -5.76430 18863 ft 408 kts 18°
2026-05-04 14:19 37.94150 -5.74976 19454 ft 412 kts 18°
2026-05-04 14:19 37.96788 -5.73507 20042 ft 416 kts 18°
2026-05-04 14:19 37.99452 -5.72021 20627 ft 420 kts 18°
2026-05-04 14:20 38.02144 -5.70513 21189 ft 424 kts 18°
2026-05-04 14:20 38.04863 -5.68995 21723 ft 429 kts 18°
2026-05-04 14:20 38.07600 -5.67466 22325 ft 432 kts 18°
2026-05-04 14:21 38.13145 -5.64355 23463 ft 438 kts 18°
2026-05-04 14:21 38.15943 -5.62782 23917 ft 442 kts 18°
2026-05-04 14:21 38.18768 -5.61200 24343 ft 445 kts 18°
2026-05-04 14:21 38.21577 -5.59627 24760 ft 448 kts 18°
2026-05-04 14:22 38.24442 -5.58018 25183 ft 452 kts 18°
2026-05-04 14:22 38.27328 -5.56390 25609 ft 455 kts 18°
2026-05-04 14:22 38.30236 -5.54748 26022 ft 458 kts 18°
2026-05-04 14:22 38.33164 -5.53096 26431 ft 462 kts 18°
2026-05-04 14:23 38.38079 -5.50316 27095 ft 467 kts 18°
2026-05-04 14:23 38.41061 -5.48634 27472 ft 470 kts 18°
2026-05-04 14:23 38.44059 -5.46943 27864 ft 473 kts 18°
2026-05-04 14:24 38.47084 -5.45232 28254 ft 476 kts 18°
2026-05-04 14:24 38.50123 -5.43512 28642 ft 479 kts 18°
2026-05-04 14:24 38.53188 -5.41773 29024 ft 482 kts 18°
2026-05-04 14:24 38.56263 -5.40015 29395 ft 485 kts 18°
2026-05-04 14:25 38.59351 -5.38259 29814 ft 486 kts 18°
2026-05-04 14:25 38.65535 -5.34747 30582 ft 486 kts 18°
2026-05-04 14:25 38.68624 -5.32978 30930 ft 486 kts 19°
2026-05-04 14:26 38.71713 -5.31200 31192 ft 488 kts 19°
2026-05-04 14:26 38.74810 -5.29392 31480 ft 490 kts 18°
2026-05-04 14:26 38.77921 -5.27616 31845 ft 489 kts 18°
2026-05-04 14:26 38.81030 -5.25858 32219 ft 488 kts 18°
2026-05-04 14:27 38.84138 -5.24089 32549 ft 488 kts 18°
2026-05-04 14:27 38.87241 -5.22318 32893 ft 488 kts 18°
2026-05-04 14:27 38.90299 -5.20567 33193 ft 488 kts 18°
2026-05-04 14:27 38.93396 -5.18787 33501 ft 488 kts 18°
2026-05-04 14:28 38.96481 -5.16981 33817 ft 488 kts 19°
2026-05-04 14:28 38.99561 -5.15106 34099 ft 490 kts 22°
2026-05-04 14:28 39.02502 -5.12831 34381 ft 494 kts 27°
2026-05-04 14:28 39.05383 -5.10445 34678 ft 492 kts 28°
2026-05-04 14:29 39.11138 -5.05674 35134 ft 492 kts 28°
2026-05-04 14:29 39.16907 -5.00948 35565 ft 491 kts 28°
2026-05-04 14:30 39.19790 -4.98566 35768 ft 491 kts 27°
2026-05-04 14:30 39.22668 -4.96197 35959 ft 492 kts 28°
2026-05-04 14:31 39.31276 -4.89097 35990 ft 491 kts 28°
2026-05-04 14:32 39.42765 -4.79508 35970 ft 491 kts 28°
2026-05-04 14:32 39.48512 -4.74700 36003 ft 491 kts 28°
2026-05-04 14:33 39.54242 -4.69895 35969 ft 490 kts 28°
2026-05-04 14:33 39.59953 -4.65085 35963 ft 490 kts 28°
2026-05-04 14:34 39.65676 -4.60269 35961 ft 489 kts 28°
2026-05-04 14:34 39.71377 -4.55436 35948 ft 491 kts 29°
2026-05-04 14:35 39.77070 -4.50515 35951 ft 491 kts 28°
2026-05-04 14:35 39.82744 -4.45668 35954 ft 491 kts 28°
2026-05-04 14:36 39.88478 -4.40813 35944 ft 490 kts 28°
2026-05-04 14:36 39.94196 -4.35953 35949 ft 491 kts 28°
2026-05-04 14:37 40.00111 -4.31677 35956 ft 483 kts 19°
2026-05-04 14:37 40.06213 -4.28002 35941 ft 483 kts 19°
2026-05-04 14:38 40.12276 -4.24341 35939 ft 483 kts 19°
2026-05-04 14:38 40.18342 -4.20569 35954 ft 486 kts 24°
2026-05-04 14:38 40.21115 -4.17992 35943 ft 494 kts 39°
2026-05-04 14:39 40.23519 -4.14769 35947 ft 496 kts 44°
2026-05-04 14:39 40.28169 -4.08049 35941 ft 497 kts 45°
2026-05-04 14:40 40.35098 -3.97935 35946 ft 497 kts 45°
2026-05-04 14:40 40.39669 -3.91214 35949 ft 497 kts 46°
2026-05-04 14:41 40.44219 -3.84390 35971 ft 495 kts 45°
2026-05-04 14:42 40.53409 -3.70889 35941 ft 496 kts 45°
2026-05-04 14:42 40.58006 -3.64112 35938 ft 496 kts 45°
2026-05-04 14:43 40.62589 -3.57337 35937 ft 496 kts 45°
2026-05-04 14:43 40.67175 -3.50544 35939 ft 496 kts 45°
2026-05-04 14:44 40.71723 -3.43779 35943 ft 496 kts 45°
2026-05-04 14:44 40.76313 -3.36975 35943 ft 497 kts 46°
2026-05-04 14:45 40.80895 -3.30131 35949 ft 497 kts 46°
2026-05-04 14:45 40.85492 -3.23309 35947 ft 497 kts 46°
2026-05-04 14:46 40.90058 -3.16540 35952 ft 496 kts 46°
2026-05-04 14:46 40.94606 -3.09691 35946 ft 495 kts 46°
2026-05-04 14:47 40.99157 -3.02852 35943 ft 495 kts 46°
2026-05-04 14:47 41.03720 -2.96000 35950 ft 496 kts 46°
2026-05-04 14:48 41.08282 -2.89138 35952 ft 496 kts 46°
2026-05-04 14:48 41.12892 -2.82346 35956 ft 494 kts 46°
2026-05-04 14:49 41.17423 -2.75556 35957 ft 494 kts 47°
2026-05-04 14:49 41.21958 -2.68684 35955 ft 494 kts 47°
2026-05-04 14:50 41.26486 -2.61795 35944 ft 495 kts 47°
2026-05-04 14:50 41.31026 -2.54896 35949 ft 495 kts 47°
2026-05-04 14:51 41.35549 -2.47986 35959 ft 493 kts 47°
2026-05-04 14:51 41.40035 -2.41133 35949 ft 493 kts 47°
2026-05-04 14:52 41.44533 -2.34227 35944 ft 493 kts 47°
2026-05-04 14:52 41.49043 -2.27323 35928 ft 493 kts 48°
2026-05-04 14:53 41.53520 -2.20371 35933 ft 494 kts 49°
2026-05-04 14:53 41.57960 -2.13383 35935 ft 492 kts 49°
2026-05-04 14:54 41.62424 -2.06448 35934 ft 491 kts 48°
2026-05-04 14:54 41.66862 -1.99574 35934 ft 491 kts 48°
2026-05-04 14:55 41.71320 -1.92655 35929 ft 491 kts 48°
2026-05-04 14:55 41.75836 -1.85777 35922 ft 492 kts 48°
2026-05-04 14:56 41.80285 -1.78815 35921 ft 490 kts 50°
2026-05-04 14:56 41.84711 -1.71861 35921 ft 490 kts 49°
2026-05-04 14:57 41.89145 -1.64909 35924 ft 490 kts 49°
2026-05-04 14:57 41.93566 -1.58008 35928 ft 490 kts 49°
2026-05-04 14:58 41.98009 -1.51058 35932 ft 491 kts 50°
2026-05-04 14:58 42.02439 -1.44054 35932 ft 492 kts 50°
2026-05-04 14:59 42.06879 -1.37034 35918 ft 492 kts 50°
2026-05-04 15:00 42.13483 -1.26445 35926 ft 492 kts 50°
2026-05-04 15:00 42.17850 -1.19400 35926 ft 492 kts 50°
2026-05-04 15:01 42.24546 -1.08861 35919 ft 496 kts 50°
2026-05-04 15:01 42.29004 -1.01733 35915 ft 496 kts 51°
2026-05-04 15:02 42.33407 -0.94532 35916 ft 497 kts 51°
2026-05-04 15:02 42.37839 -0.87374 35912 ft 496 kts 51°
2026-05-04 15:03 42.42283 -0.80223 35919 ft 495 kts 51°
2026-05-04 15:03 42.46714 -0.73099 35884 ft 494 kts 51°
2026-05-04 15:04 42.51134 -0.65952 35905 ft 494 kts 51°
2026-05-04 15:04 42.55538 -0.58798 35911 ft 494 kts 51°
2026-05-04 15:05 42.59895 -0.51660 35922 ft 498 kts 51°
2026-05-04 15:05 42.64383 -0.44372 36120 ft 503 kts 51°
2026-05-04 15:06 42.66618 -0.40713 36440 ft 501 kts 52°
2026-05-04 15:06 42.68825 -0.37039 36607 ft 503 kts 51°
2026-05-04 15:06 42.71036 -0.33369 36791 ft 502 kts 51°
2026-05-04 15:07 42.75485 -0.26060 37165 ft 501 kts 51°
2026-05-04 15:07 42.77715 -0.22416 37341 ft 501 kts 51°
2026-05-04 15:07 42.79944 -0.18766 37537 ft 500 kts 51°
2026-05-04 15:07 42.82163 -0.15112 37739 ft 500 kts 51°
2026-05-04 15:08 42.84356 -0.11452 37902 ft 499 kts 51°
2026-05-04 15:08 42.88758 -0.04157 37980 ft 504 kts 50°
2026-05-04 15:09 42.93237 0.03323 37962 ft 508 kts 51°
2026-05-04 15:09 42.97678 0.10759 37946 ft 508 kts 51°
2026-05-04 15:10 43.04345 0.22041 37950 ft 507 kts 51°
2026-05-04 15:11 43.11029 0.33240 37948 ft 506 kts 51°
2026-05-04 15:11 43.15480 0.40732 37930 ft 508 kts 51°
2026-05-04 15:12 43.19218 0.46956 37950 ft 509 kts 52°
2026-05-04 15:12 43.23667 0.54520 37963 ft 509 kts 52°
2026-05-04 15:13 43.28110 0.62080 37937 ft 508 kts 52°
2026-05-04 15:13 43.32544 0.69630 37937 ft 508 kts 52°
2026-05-04 15:14 43.36942 0.77150 37906 ft 508 kts 52°
2026-05-04 15:14 43.41368 0.84752 37935 ft 509 kts 53°
2026-05-04 15:15 43.45796 0.92356 37928 ft 509 kts 52°
2026-05-04 15:15 43.50214 0.99985 37922 ft 509 kts 52°
2026-05-04 15:16 43.56846 1.11428 37916 ft 509 kts 52°
2026-05-04 15:17 43.63458 1.22939 37949 ft 511 kts 53°
2026-05-04 15:17 43.69962 1.34520 37950 ft 511 kts 54°
2026-05-04 15:18 43.74190 1.42411 37945 ft 510 kts 55°
2026-05-04 15:19 43.80507 1.54294 37892 ft 511 kts 55°
2026-05-04 15:19 43.86787 1.66227 37917 ft 510 kts 55°
2026-05-04 15:20 43.90983 1.74179 37898 ft 510 kts 55°
2026-05-04 15:20 43.95168 1.82134 37914 ft 510 kts 55°
2026-05-04 15:21 43.99214 1.90156 37911 ft 510 kts 56°
2026-05-04 15:22 44.05286 2.02358 37914 ft 511 kts 56°
2026-05-04 15:22 44.11296 2.14592 37914 ft 510 kts 57°
2026-05-04 15:23 44.15369 2.22692 37913 ft 511 kts 56°
2026-05-04 15:23 44.19395 2.30774 37901 ft 511 kts 57°
2026-05-04 15:24 44.27418 2.47129 37930 ft 510 kts 57°
2026-05-04 15:25 44.31394 2.55272 37935 ft 510 kts 57°
2026-05-04 15:26 44.37390 2.67574 37907 ft 510 kts 57°
2026-05-04 15:26 44.43365 2.79913 37940 ft 511 kts 57°
2026-05-04 15:27 44.49307 2.92205 37951 ft 510 kts 57°
2026-05-04 15:28 44.55253 3.04582 37941 ft 510 kts 57°
2026-05-04 15:29 44.61157 3.17009 37944 ft 510 kts 60°
2026-05-04 15:30 44.73306 3.47380 37965 ft 509 kts 62°
2026-05-04 15:31 44.78495 3.60431 37969 ft 509 kts 62°
2026-05-04 15:32 44.87088 3.82175 37957 ft 510 kts 62°
2026-05-04 15:34 44.95671 4.04097 37993 ft 511 kts 62°
2026-05-04 15:34 45.01348 4.16917 38000 ft 516 kts 54°
2026-05-04 15:35 45.07718 4.29103 37989 ft 516 kts 54°
2026-05-04 15:36 45.14006 4.41449 38004 ft 513 kts 54°
2026-05-04 15:36 45.18154 4.49690 38008 ft 513 kts 54°
2026-05-04 15:37 45.22298 4.57926 38001 ft 514 kts 54°
2026-05-04 15:37 45.26439 4.66192 38002 ft 513 kts 54°
2026-05-04 15:38 45.30574 4.74468 38013 ft 512 kts 55°
2026-05-04 15:38 45.34674 4.82697 38012 ft 513 kts 55°
2026-05-04 15:39 45.38780 4.90986 38013 ft 512 kts 55°
2026-05-04 15:40 45.44936 5.03419 38031 ft 512 kts 55°
2026-05-04 15:40 45.49039 5.11719 38013 ft 511 kts 54°
2026-05-04 15:41 45.53118 5.20014 38021 ft 511 kts 55°
2026-05-04 15:41 45.57183 5.28330 38018 ft 510 kts 55°
2026-05-04 15:42 45.61255 5.36636 38023 ft 510 kts 55°
2026-05-04 15:42 45.65290 5.44921 38029 ft 510 kts 55°
2026-05-04 15:43 45.69345 5.53259 38030 ft 510 kts 55°
2026-05-04 15:43 45.73380 5.61602 38047 ft 510 kts 56°
2026-05-04 15:44 45.77386 5.69985 38038 ft 509 kts 55°
2026-05-04 15:44 45.81413 5.78335 38043 ft 510 kts 55°
2026-05-04 15:45 45.85435 5.86728 38056 ft 510 kts 55°
2026-05-04 15:45 45.89455 5.95100 38041 ft 508 kts 53°
2026-05-04 15:46 45.94313 6.02416 38050 ft 506 kts 40°
2026-05-04 15:46 45.99525 6.09093 38049 ft 505 kts 40°
2026-05-04 15:47 46.04760 6.15870 38060 ft 506 kts 40°
2026-05-04 15:47 46.09749 6.23016 38057 ft 508 kts 52°
2026-05-04 15:48 46.13869 6.31301 38053 ft 509 kts 54°
2026-05-04 15:48 46.19949 6.43827 38047 ft 505 kts 54°
2026-05-04 15:49 46.23969 6.52095 38046 ft 502 kts 54°
2026-05-04 15:49 46.27970 6.60361 38056 ft 503 kts 55°
2026-05-04 15:50 46.32002 6.68715 38082 ft 503 kts 54°
2026-05-04 15:50 46.35994 6.77025 38066 ft 503 kts 54°
2026-05-04 15:51 46.39966 6.85298 38050 ft 502 kts 54°
2026-05-04 15:51 46.43942 6.93600 38059 ft 501 kts 55°
2026-05-04 15:52 46.47899 7.01901 38062 ft 501 kts 55°
2026-05-04 15:52 46.51862 7.10243 38072 ft 501 kts 55°
2026-05-04 15:53 46.55784 7.18511 38063 ft 487 kts 55°
2026-05-04 15:53 46.60138 7.25933 38053 ft 482 kts 40°
2026-05-04 15:54 46.65213 7.32310 38046 ft 481 kts 39°
2026-05-04 15:54 46.70280 7.38652 38040 ft 480 kts 39°
2026-05-04 15:55 46.75297 7.44994 38034 ft 479 kts 39°
2026-05-04 15:55 46.80026 7.51815 38043 ft 480 kts 50°
2026-05-04 15:56 46.82106 7.55610 37920 ft 479 kts 51°
2026-05-04 15:56 46.84166 7.59490 37496 ft 485 kts 52°
2026-05-04 15:56 46.86237 7.63348 36996 ft 480 kts 51°
2026-05-04 15:56 46.88325 7.67148 36479 ft 479 kts 51°
2026-05-04 15:57 46.90410 7.70953 35963 ft 479 kts 51°
2026-05-04 15:57 46.92485 7.74768 35461 ft 479 kts 52°
2026-05-04 15:57 46.94549 7.78581 34983 ft 478 kts 52°
2026-05-04 15:57 46.96619 7.82409 34490 ft 479 kts 52°
2026-05-04 15:58 46.98689 7.86230 34005 ft 479 kts 52°
2026-05-04 15:58 47.00759 7.90063 33454 ft 480 kts 53°
2026-05-04 15:58 47.02829 7.93908 32906 ft 480 kts 53°
2026-05-04 15:58 47.04895 7.97749 32416 ft 479 kts 53°
2026-05-04 15:59 47.06995 8.01538 31883 ft 477 kts 49°
2026-05-04 15:59 47.09307 8.04923 31384 ft 474 kts 45°
2026-05-04 15:59 47.11689 8.08256 30846 ft 471 kts 45°
2026-05-04 15:59 47.14058 8.11570 30358 ft 468 kts 45°
2026-05-04 16:00 47.16416 8.14837 29842 ft 465 kts 43°
2026-05-04 16:00 47.18104 8.16781 29466 ft 465 kts 35°
2026-05-04 16:00 47.20956 8.18957 28895 ft 462 kts 20°
2026-05-04 16:00 47.23956 8.20607 28375 ft 459 kts 26°
2026-05-04 16:01 47.26647 8.23072 27827 ft 454 kts 40°
2026-05-04 16:01 47.28849 8.26348 27302 ft 448 kts 54°
2026-05-04 16:01 47.30436 8.30237 26783 ft 440 kts 69°
2026-05-04 16:01 47.31367 8.34496 26264 ft 433 kts 79°
2026-05-04 16:02 47.31977 8.38811 25773 ft 429 kts 82°
2026-05-04 16:02 47.32506 8.43126 25268 ft 426 kts 83°
2026-05-04 16:02 47.33254 8.51653 24128 ft 414 kts 88°
2026-05-04 16:03 47.33499 8.55857 23536 ft 409 kts 88°
2026-05-04 16:03 47.33726 8.60005 22779 ft 401 kts 88°
2026-05-04 16:03 47.33943 8.64057 22050 ft 393 kts 88°
2026-05-04 16:03 47.34152 8.68052 21353 ft 388 kts 88°
2026-05-04 16:04 47.34353 8.71983 20654 ft 381 kts 88°
2026-05-04 16:04 47.34729 8.79624 19306 ft 366 kts 88°
2026-05-04 16:04 47.34904 8.83322 18656 ft 359 kts 88°
2026-05-04 16:05 47.35070 8.86922 17937 ft 353 kts 88°
2026-05-04 16:05 47.35233 8.90502 17151 ft 348 kts 88°
2026-05-04 16:05 47.35543 8.97529 15637 ft 338 kts 88°
2026-05-04 16:06 47.35691 9.00976 14897 ft 333 kts 89°
2026-05-04 16:06 47.38301 9.08714 12891 ft 325 kts 36°
2026-05-04 16:07 47.41065 9.10298 11872 ft 319 kts
2026-05-04 16:07 47.46553 9.06416 9696 ft 299 kts 297°
2026-05-04 16:08 47.47222 9.03571 8938 ft 291 kts 274°
2026-05-04 16:08 47.45130 8.95771 7088 ft 264 kts 233°
2026-05-04 16:09 47.43131 8.91312 6593 ft 259 kts 241°
2026-05-04 16:09 47.42521 8.86178 6017 ft 259 kts 276°
2026-05-04 16:10 47.43452 8.81109 5028 ft 258 kts 288°
2026-05-04 16:11 47.44257 8.73988 4063 ft 210 kts 278°
2026-05-04 16:11 47.44404 8.71952 3893 ft 191 kts 275°
2026-05-04 16:12 47.44921 8.66536 2988 ft 164 kts 278°
2026-05-04 16:12 47.45295 8.61855 2215 ft 139 kts 278°
2026-05-04 16:13 47.45502 8.59059 1747 ft 138 kts 278°
2026-05-04 16:13 47.45705 8.56309 1426 ft 124 kts 277°
2026-05-04 16:14 47.45805 8.54952 1396 ft 22 kts 272°
2026-05-04 16:14 47.45537 8.54999 1404 ft 27 kts 153°
2026-05-04 16:15 47.45302 8.55493 1414 ft 16 kts 120°
2026-05-04 16:16 47.45264 8.55748 1412 ft 6 kts 94°
2026-05-04 16:16 47.45202 8.55884 1417 ft 6 kts 184°
2026-05-04 16:17 47.45167 8.55880 1415 ft 0 kts 185°